Flag for Austria Weather past 2 weeks in Murau, Styria, Austria

Now
30 °F

Partly cloudy.


Feels Like: 27 °F
Forecast: 19 / 28 °F
Wind: 3 mph from North

Location: Zeltweg

Current Time: Jan 29, 2015 at 6:25:00 PM

Latest Report: Jan 29, 2015 at 5:50 PM


Visibility: 9 mi

Pressure: 29.33 "Hg

Humidity: 93%

Dew point: 28 °F

Location of MurauLocation

Historic Weather in Murau — Graph

°F

Murau temperature yesterday

Maximum temperature yesterday: 39 °F (at 1:50 PM)
Minimum temperature yesterday: 18 °F (at 7:20 AM)
Average temperature yesterday: 29 °F

Past Weeks' High & Low Weather Summary

 TemperatureHumidityPressure
High52 °F (Jan 16, 1:50 PM)100% (Jan 14, 9:50 PM)30.21 "Hg (Jan 14, 9:50 PM)
Low18 °F (Jan 28, 7:20 AM)39% (Jan 28, 1:50 PM)29.36 "Hg (Jan 29, 4:20 PM)
Average34 °F80%29.91 "Hg
* Reported Jan 14 4:20 PM — Jan 29 4:50 PM, Murau, Weather by CustomWeather, © 2014

Note: Actual official high and low records may vary slightly from our data, if they occured in-between our weather recording intervals... More about our weather records

Advertising

Murau weather history for previous 24 hours

 ConditionsComfort  
Time TempWeatherWind HumidityBarometerVisibility
4:50 PM
Jan 29
32 °FBroken clouds.1 mph87%29.36 "Hg12 mi
4:20 PM32 °FMore clouds than sun.3 mph87%29.36 "Hg12 mi
3:50 PM32 °FMore clouds than sun.3 mph80%29.39 "Hg12 mi
3:20 PM32 °FBroken clouds.1 mph75%29.39 "Hg12 mi
2:50 PM32 °FBroken clouds.3 mph80%29.39 "Hg9 mi
2:20 PM32 °FLight snow. Broken clouds.2 mph87%29.42 "Hg9 mi
1:50 PM32 °FBroken clouds.1 mph87%29.42 "Hg12 mi
1:20 PM30 °FLight snow. Partly sunny.3 mph100%29.45 "Hg7 mi
12:50 PM30 °FLight snow. Partly sunny.3 mph100%29.47 "Hg5 mi
12:20 PM30 °FLight snow. More clouds than sun.3 mph93%29.47 "Hg2 mi
11:50 AM28 °FSnow. More clouds than sun.2 mph93%29.50 "Hg1 mi
11:20 AM28 °FSnow. Mostly cloudy.2 mph86%29.50 "Hg2 mi
10:50 AM30 °FLight snow. Cloudy.1 mph80%29.50 "Hg5 mi
10:20 AM30 °FLight snow. Mostly cloudy.2 mph80%29.50 "Hg5 mi
9:50 AM30 °FLight snow. Mostly cloudy.6 mph80%29.50 "Hg5 mi
9:20 AM30 °FMostly cloudy.3 mph75%29.50 "Hg12 mi
8:50 AM28 °FScattered showers. Mostly cloudy.6 mph80%29.50 "Hg12 mi
8:20 AM28 °FLight snow. More clouds than sun.7 mph80%29.50 "Hg12 mi
7:50 AM28 °FPartly sunny.7 mph80%29.50 "Hg12 mi
7:20 AM30 °FMostly cloudy.5 mph75%29.50 "Hg9 mi
6:50 AM30 °FMostly cloudy.5 mph69%29.50 "Hg12 mi
5:50 AM28 °FMostly cloudy.8 mph74%29.50 "Hg12 mi
4:50 AM30 °FMostly cloudy.3 mph69%29.56 "Hg12 mi
9:50 PM
Jan 28
21 °FPassing clouds.5 mph93%29.74 "Hg12 mi
8:50 PM25 °FPassing clouds.No wind86%29.80 "Hg12 mi
7:50 PM25 °FPassing clouds.No wind80%29.83 "Hg12 mi
6:50 PM28 °FPassing clouds.No wind74%29.86 "Hg12 mi
Weather by CustomWeather, © 2014

See weather overviewHow to use our weather pages